Almeria, Spain

2:57 AM CEST en Agosto 18, 2018 (GMT +0200)
Almeria

Tiempo Historia de LEAM - Enero, 2018

Change the Weather History Date:

Lunes, Enero 1, 2018

  Actual Average Record
Temperature  
Temperatura media 58 ° F -  
Temperatura máxima 66 ° F 58 ° F 66 ° F (2006)
Temperatura mínima 50 ° F 46 ° F 41 ° F (2005)
Degree Days  
Grados día de calefacción 7    
Growing Degree Days 8 (Base 50)    
Moisture  
Punto de rocío 43 ° F    
Average Humidity 55    
Maximum Humidity 94    
Minimum Humidity 15    
Precipitación  
Precipitación 0.00 pul 0.04 pul - ()
Presión al nivel del mar  
Presión al nivel del mar 30.45 pul    
Viento  
Velocidad del viento 6 mph ()    
Velocidad máxima del viento 20 mph    
Max Gust Speed 32 mph    
Visibilidad 6.2 Millas    
Eventos      
Averages and records for this station are not official NWS values.
T = Trace of Precipitation, MM = Missing Value Source: Averaged Metar Reports

Daily Weather History Graph

Daily Weather History Graph

Search for Another Location

Airport or City:

Astronomía

Jan. 01, 2018 Salida Puesta
Hora real 8:22 AM CET 6:03 PM CET
Crepúsculo civil 7:53 AM CET 6:32 PM CET
Crepúsculo náutico 7:21 AM CET 7:05 PM CET
Crepúsculo astronómico 6:49 AM CET 7:36 PM CET
Luna 5:45 PM CET (1/1) 7:22 AM CET (1/1)
Horas de luz 10h 39m
Horas de luz
9h 41m
Gibosa creciente, 99% of the Moon is Illuminated
Ene 1
Gibosa creciente
Ene 2
Luna llena
Ene 8
Cuarto menguante
Ene 17
Nueva
Ene 24
Cuarto creciente

Hourly Weather History & Observations

Hora (CET) Temp. Punto de rocío Humedad Presión Visibilidad Wind Dir Velocidad del viento Velocidad de ráfagas Precip Eventos Condiciones
12:00 AM 64 ° F 46 ° F 41% 30.33 pul - Oeste 10.4 mph - -  
12:00 AM 64.4 ° F 46.4 ° F 52% 30.30 pul 6.2 mi ONO 10.4 mph - N/A   Desconocido
12:30 AM 62.6 ° F 48.2 ° F 59% 30.33 pul 6.2 mi ONO 5.8 mph - N/A   Desconocido
1:00 AM 61 ° F 46 ° F 48% 30.37 pul - Oeste 2.3 mph - -  
1:00 AM 62.6 ° F 46.4 ° F 55% 30.36 pul 6.2 mi Variable 2.3 mph - N/A   Desconocido
1:30 AM 64.4 ° F 42.8 ° F 45% 30.36 pul 6.2 mi ONO 10.4 mph - N/A   Desconocido
2:00 AM 64.4 ° F 37.4 ° F 37% 30.36 pul 6.2 mi NO 9.2 mph - N/A   Desconocido
2:30 AM 64.4 ° F 33.8 ° F 32% 30.39 pul 6.2 mi NO 16.1 mph 27.6 mph N/A   Desconocido
3:00 AM 64 ° F 28 ° F 15% 30.42 pul - NO 19.6 mph - -  
3:00 AM 64.4 ° F 28.4 ° F 26% 30.39 pul 6.2 mi NNO 18.4 mph - N/A   Desconocido
3:30 AM 64.4 ° F 26.6 ° F 24% 30.42 pul 6.2 mi Norte 19.6 mph 32.2 mph N/A   Desconocido
4:00 AM 64.4 ° F 24.8 ° F 22% 30.42 pul 6.2 mi Norte 17.3 mph 28.8 mph N/A   Desconocido
4:30 AM 64.4 ° F 23.0 ° F 21% 30.42 pul 6.2 mi NNE 10.4 mph 25.3 mph N/A   Desconocido
5:00 AM 62.6 ° F 23.0 ° F 22% 30.42 pul - Norte 4.6 mph - N/A   Despejado
5:30 AM 59.0 ° F 32.0 ° F 36% 30.42 pul - Variable 1.2 mph - N/A   Despejado
6:00 AM 57 ° F 27 ° F 20% 30.46 pul - NE 8.1 mph - -  
6:00 AM 57.2 ° F 28.4 ° F 33% 30.45 pul - NE 6.9 mph - N/A   Despejado
6:30 AM 53.6 ° F 30.2 ° F 41% 30.45 pul - NO 4.6 mph - N/A   Despejado
7:00 AM 55.4 ° F 28.4 ° F 36% 30.48 pul - Norte 2.3 mph - N/A   Despejado
7:30 AM 51.8 ° F 33.8 ° F 50% 30.48 pul - Norte 4.6 mph - N/A   Despejado
8:00 AM 51.8 ° F 33.8 ° F 50% 30.48 pul - Norte 5.8 mph - N/A   Despejado
9:00 AM 52 ° F 40 ° F 52% 30.52 pul - Norte 6.9 mph - -  
9:00 AM 51.8 ° F 39.2 ° F 62% 30.51 pul - NNO 8.1 mph - N/A   Despejado
9:30 AM 57.2 ° F 33.8 ° F 41% 30.51 pul - NNO 9.2 mph - N/A   Despejado
10:00 AM 60 ° F 33 ° F 24% 30.55 pul 31 mi NO 6.9 mph - -   Despejado
10:00 AM 59.0 ° F 33.8 ° F 39% 30.54 pul - NO 6.9 mph - N/A   Despejado
10:30 AM 62.6 ° F 35.6 ° F 37% 30.54 pul - NO 4.6 mph - N/A   Despejado
11:30 AM 62.6 ° F 48.2 ° F 59% 30.54 pul - SO 8.1 mph - N/A   Despejado
12:00 PM 64 ° F 48 ° F 46% 30.54 pul - SO 5.8 mph - -  
12:00 PM 62.6 ° F 46.4 ° F 55% 30.54 pul - SO 5.8 mph - N/A   Despejado
12:30 PM 64.4 ° F 46.4 ° F 52% 30.51 pul - SO 3.5 mph - N/A   Despejado
1:00 PM 65 ° F 47 ° F 41% 30.51 pul 31 mi SSO 3.5 mph - -   Despejado
1:00 PM 64.4 ° F 46.4 ° F 52% 30.51 pul - SSO 3.5 mph - N/A   Despejado
1:30 PM 64.4 ° F 46.4 ° F 52% 30.48 pul - SSO 3.5 mph - N/A   Despejado
2:00 PM 65 ° F 45 ° F 36% 30.48 pul - SSO 4.6 mph - -  
2:00 PM 64.4 ° F 42.8 ° F 45% 30.48 pul - SSO 3.5 mph - N/A   Despejado
2:30 PM 64.4 ° F 44.6 ° F 49% 30.45 pul - Sur 3.5 mph - N/A   Despejado
3:00 PM 65 ° F 49 ° F 45% 30.45 pul - Sur 4.6 mph - -  
3:00 PM 64.4 ° F 48.2 ° F 56% 30.45 pul - SSO 3.5 mph - N/A   Despejado
3:30 PM 62.6 ° F 42.8 ° F 48% 30.42 pul - SSO 4.6 mph - N/A   Despejado
4:00 PM 64 ° F 51 ° F 52% 30.43 pul 31 mi SSO 5.8 mph - -   Despejado
4:00 PM 62.6 ° F 50.0 ° F 63% 30.42 pul - SSO 4.6 mph - N/A   Despejado
4:30 PM 62.6 ° F 51.8 ° F 68% 30.42 pul - SSO 4.6 mph - N/A   Despejado
5:00 PM 60.8 ° F 51.8 ° F 72% 30.42 pul - Variable 1.2 mph - N/A   Despejado
5:30 PM 60.8 ° F 53.6 ° F 77% 30.42 pul - Variable 2.3 mph - N/A   Despejado
6:00 PM 60 ° F 53 ° F 71% 30.44 pul - Sin viento Sin viento - -  
6:00 PM 59.0 ° F 53.6 ° F 82% 30.42 pul - Sin viento Sin viento - N/A   Despejado
6:30 PM 57.2 ° F 51.8 ° F 82% 30.42 pul - Sin viento Sin viento - N/A   Despejado
7:00 PM 55 ° F 50 ° F 78% 30.45 pul 31 mi Sin viento Sin viento - -   Despejado
7:00 PM 55.4 ° F 50.0 ° F 82% 30.42 pul - Sin viento Sin viento - N/A   Despejado
7:30 PM 53.6 ° F 50.0 ° F 88% 30.42 pul - NO 1.2 mph - N/A   Despejado
8:00 PM 53 ° F 50 ° F 86% 30.45 pul - NNO 3.5 mph - -  
8:00 PM 53.6 ° F 50.0 ° F 88% 30.45 pul - Variable 2.3 mph - N/A   Despejado
8:30 PM 53.6 ° F 50.0 ° F 88% 30.45 pul - Variable 1.2 mph - N/A   Despejado
9:00 PM 53 ° F 49 ° F 83% 30.45 pul - Sin viento Sin viento - -  
9:00 PM 53.6 ° F 50.0 ° F 88% 30.45 pul - Sin viento Sin viento - N/A   Despejado
9:30 PM 51.8 ° F 48.2 ° F 88% 30.45 pul - Sin viento Sin viento - N/A   Despejado
10:00 PM 50.0 ° F 48.2 ° F 94% 30.45 pul - Variable 1.2 mph - N/A   Despejado
10:30 PM 51.8 ° F 48.2 ° F 88% 30.45 pul - Variable 1.2 mph - N/A   Despejado
11:00 PM 52 ° F 48 ° F 83% 30.46 pul - Sin viento Sin viento - -  
11:00 PM 51.8 ° F 48.2 ° F 88% 30.45 pul 6.2 mi Sin viento Sin viento - N/A   Desconocido
11:30 PM 51.8 ° F 48.2 ° F 88% 30.45 pul 6.2 mi NE 3.5 mph - N/A   Desconocido